GLONASS-K 2

Last updated on Sat Aug 15 2026 00:02:48 GMT+0000 (Coordinated Universal Time)

1 40315U 14075A 26224.61173280 .00000014 00000+0 00000+0 0 9997 2 40315 63.6186 188.4191 0022542 212.0191 147.8121 2.13101214 91052
UTC large
Height (km)
Speed (km/s)
/
Latitude / Longitude
Inclination (degrees)
Orbital Period (minutes)
Azimuth
Elevation
Range (km)
Doppler Factor

Next 0 passes for location: London (51.5072 / 0.1276)

No passes found over London.
GLONASS-K 2